DELTA 1 DEB, 10198

Orbit data source: Space-Track

DELTA 1 DEB, 10198 is space debris in LEO originally from a launch on Thu, 14 Jul 1977 UTC launched from the Air Force Eastern Test Range (AFETR). Debris objects in space refer to the collection of defunct objects orbiting the Earth. Examples of debris include non-operational satellites, rocket bodies, and fragments generated from explosions, collisions, or faulty payload assembly.

Loading next visibility...
Identifier
10198, 1977-065AB
Orbit
LEO
Country
Flag of USUS
Related business
Manufacturer
Unknown
Mission
Spacecraft
Bus & Motor
Unknown
Mass
Unknown
Launch date (UTC)
1977-07-14 (49 years ago)
Launch vehicle
Unknown
Launch site
Air Force Eastern Test Range (AFETR)
Object type
Payload
Rocket body
Debris
Shape & HBR
Unknown shape, 0.1 m
Radar Cross Section
Medium (>0.1 m² and <1 m²)

Expand to show TLE details & history
Last TLE update: 1 day ago

TLE from 1 day ago
0 DELTA 1 DEB
1 10198U 77065AB  26262.12357157  .00001213  00000-0  87068-3 0  9992
2 10198  29.5673  67.3706 0600219 233.1984 121.2042 13.30674361342151
Epoch: 2026-09-19T02:57Z
TLE epoch observation values (Epoch: 2026-09-19T02:57:56.583Z)
Latitude
-0.00001°
Longitude
24.84821°
Altitude
1,395.471 km
Speed
7.043 km/s
True Right ascension
04h 29m 28s
True Declination
0° 00' 00"
Sunlit
Object was in daylight at epoch
Visualization orbit readout
Latitude
Unknown
Longitude
Unknown
Altitude
Unknown
Speed
Unknown
Apparent Right ascension
Unknown
Apparent Declination
Unknown
Sunlit
N/A
Visualization observer readout
Local Sidereal Time
04:41:59
Azimuth
Unknown
Elevation
Unknown
Doppler factor
Unknown
Orbital elements
Apogee altitude
1,599.694 km
Perigee altitude
696.232 km
Semi-major axis
7,526.1 km
Eccentricity
0.06002
Inclination
29.5673°
RAAN
67.3706°
Arg. of periapsis
233.1984°
True anomaly
126.85757°
Mean anomaly
121.2042°
Eccentric anomaly
124.05347°
Mean motion
3.32421 °/min
Orbital period
108.3 mins
BSTAR
0.00087068
Loading maneuver chart data...
Computing Atmospheric mass density...

Documentation

Showing up to 5 results
|